Погода в Кирицах

Россия / Рязанская область     54°17′11″N   40°20′58″E
темп.,
°C
ветер,
м/с
пор.,
м/с
влажн.,
%
обл.,
%
осадки,
мм/ч
давл.,
гПа
погр.,
м
1 декабря, ср
ср100:000юз10157095 0.0 9891269
03:00−1зюз7127180 0.0 990813
06:00−2зюз6116958 0.0 991886
09:00−2зюз5107251 0.0 992844
12:000зюз7106155 0.0 9921144
15:00−1зюз6106219 0.0 9921200
18:00−2зюз61168100 0.0 994773
21:00−2з61078100 0.1 9951043
2 декабря, чт
чт200:00−3з61089100 0.6 997841
03:00−5зсз697560 0.6 1000714
06:00−6з59766 0.0 1002569
09:00−5зюз48765 0.0 1004535
12:00−3юз576186 0.0 1005577
15:00−2ююз51059100 0.0 1005600
18:00−3ююз71586100 0.1 1004721
21:00−1ююз71696100 1.4 1003697
3 декабря, пт
пт300:000юз71593100 0.4 1004623
03:00+1юз61393100 0.4 1005466
06:00+1ююз51192100 0.0 1006343
09:000ююз51294100 0.0 1008299
12:00+2ююз6129181 0.0 1008400
15:00+2ю71493100 0.0 1007585
18:00+3ю81695100 0.0 1006623
21:00+4ю81792100 0.0 1005670
4 декабря, сб
сб400:00+5ю91890100 0.0 1003662
03:00+5ююз81592100 0.8 10031094
06:00+1з61197100 1.5 1006606
09:00+1з41087100 1.7 1009640
12:00+1з487671 0.0 1011566
15:000зюз3677100 0.0 1013309
18:00−1юз368523 0.0 1014146
21:00−2юз368498 0.0 1015133
5 декабря, вс
вс500:00−2юз24825 0.0 1015105
03:00−2зюз238151 0.0 101670
06:00−2з1182100 0.0 101625
09:00−2с0084100 0.0 101714
12:00−1св2277100 0.0 1017254
15:00−1св3583100 0.0 1017206
18:00−2св3786100 0.0 1018286
21:00−2св4884100 0.0 1017334